Overview Statistics Trail Chart Weather Telemetry Raw packets
 

This is the latest recevied weather packets stored in our database for station/object OK2ZA-6. If no packets are shown the sender has not sent any weather packets the latest 10 day(s).

<< 4 5 6 7 8 9 10 >>
Time Temp. Humidity Pressure Rain* Wind** Luminosity Snow
1788618004 22.22° C 43% 1019.3 hPa 0 mm - - -
1788617403 22.22° C 44% 1019.2 hPa 0 mm - - -
1788616804 22.22° C 44% 1019.3 hPa 0 mm - - -
1788616204 22.22° C 45% 1019.2 hPa 0 mm - - -
1788615604 22.22° C 44% 1019.3 hPa 0 mm - - -
1788615004 22.22° C 45% 1019.3 hPa 0 mm - - -
1788614404 22.22° C 46% 1019.4 hPa 0 mm - - -
1788613804 21.67° C 47% 1019.4 hPa 0 mm - - -
1788613204 22.22° C 46% 1019.4 hPa 0 mm - - -
1788612603 22.22° C 46% 1019.4 hPa 0 mm - - -
1788612004 22.22° C 48% 1019.3 hPa 0 mm - - -
1788611404 22.22° C 47% 1019.4 hPa 0 mm - - -
1788610823 22.22° C 45% 1019.5 hPa 0 mm - - -
1788610204 21.67° C 45% 1019.5 hPa 0 mm - - -
1788609604 21.67° C 49% 1019.5 hPa 0 mm - - -
1788609005 21.67° C 49% 1019.5 hPa 0 mm - - -
1788608404 21.67° C 52% 1019.5 hPa 0 mm - - -
1788607804 21.67° C 52% 1019.5 hPa 0 mm - - -
1788607204 21.67° C 53% 1019.6 hPa 0 mm - - -
1788606604 21.11° C 54% 1019.7 hPa 0 mm - - -
1788606004 20° C 58% 1019.7 hPa 0 mm - - -
1788605404 20° C 58% 1019.7 hPa 0 mm - - -
1788604805 20° C 60% 1019.6 hPa 0 mm - - -
1788604205 20° C 61% 1019.7 hPa 0 mm - - -
1788603604 19.44° C 64% 1019.6 hPa 0 mm - - -

* Rain latest hour (hover to see other rain measurements)
** Current wind speed in m/s (hover to see current wind gust speed)